DW1024 Weather Reports


time (UTC)temp
F
wind
direction
speed
knots
gust
knots
rain 1hr
in
rain 24hr
in
rain mn
in
humidity
%
barometer
mb
20260906194839 58 61 0.0 0.0 0.00 0.00 0.00 72 1026.2
20260906193334 59 61 0.0 0.0 0.00 0.00 0.00 69 1026.3
20260906191832 61 61 0.0 0.0 0.00 0.00 0.00 64 1026.4
20260906190333 63 61 0.0 0.0 0.00 0.00 0.00 61 1026.4
20260906184833 64 61 0.0 0.9 0.00 0.00 0.00 59 1026.2
20260906183331 67 61 0.9 2.6 0.00 0.00 0.00 53 1026.1
20260906181830 68 49 0.9 3.5 0.00 0.00 0.00 51 1026.1
20260906180329 69 42 1.7 4.3 0.00 0.00 0.00 49 1025.9
20260906174830 70 57 2.6 5.2 0.00 0.00 0.00 47 1025.9
20260906173329 71 65 2.6 5.2 0.00 0.00 0.00 45 1026.0
20260906171830 71 74 2.6 5.2 0.00 0.00 0.00 44 1026.0
20260906170330 73 43 2.6 7.0 0.00 0.00 0.00 42 1025.9
20260906164829 73 33 2.6 5.2 0.00 0.00 0.00 42 1026.0
20260906163329 73 38 2.6 7.8 0.00 0.00 0.00 40 1026.0
20260906161830 74 59 2.6 7.0 0.00 0.00 0.00 40 1026.0
20260906160329 74 32 2.6 7.0 0.00 0.00 0.00 39 1026.0
20260906154830 75 62 3.5 8.7 0.00 0.00 0.00 38 1026.0
20260906153330 76 65 3.5 8.7 0.00 0.00 0.00 39 1026.1
20260906151827 76 165 2.6 7.8 0.00 0.00 0.00 39 1026.1
20260906144823 77 132 1.7 6.1 0.00 0.00 0.00 38 1026.4
20260906141821 77 69 2.6 7.0 0.00 0.00 0.00 41 1026.6
20260906140312 77 83 2.6 6.1 0.00 0.00 0.00 42 1026.6
20260906134813 78 133 1.7 7.8 0.00 0.00 0.00 40 1026.7
20260906133128 78 51 1.7 8.7 0.00 0.00 0.00 41 1026.9
20260906130313 76 135 1.7 7.0 0.00 0.00 0.00 42 1026.9
20260906124810 76 31 1.7 5.2 0.00 0.00 0.00 43 1026.9
20260906123311 77 292 1.7 7.0 0.00 0.00 0.00 44 1026.9
20260906121810 75 351 2.6 8.7 0.00 0.00 0.00 45 1027.2
20260906120310 74 67 1.7 6.1 0.00 0.00 0.00 47 1027.2
20260906114810 74 24 1.7 7.8 0.00 0.00 0.00 47 1027.4
20260906113311 74 44 1.7 5.2 0.00 0.00 0.00 47 1027.6
20260906111814 74 16 1.7 7.0 0.00 0.00 0.00 48 1027.9
20260906104811 74 302 1.7 5.2 0.00 0.00 0.00 52 1028.1
20260906103315 73 70 1.7 7.0 0.00 0.00 0.00 50 1028.2
20260906094810 72 296 0.9 5.2 0.00 0.00 0.00 55 1028.6
20260906093311 70 318 1.7 7.0 0.00 0.00 0.00 54 1028.8
20260906091815 70 15 1.7 5.2 0.00 0.01 0.00 56 1028.9
20260906090310 69 350 1.7 5.2 0.00 0.01 0.00 57 1028.9
20260906084810 68 59 1.7 4.3 0.00 0.01 0.00 58 1028.9
20260906083310 69 188 0.9 5.2 0.00 0.01 0.00 59 1028.9
20260906081811 67 83 0.9 4.3 0.00 0.01 0.00 60 1028.9
20260906080312 65 69 0.9 4.3 0.00 0.01 0.00 61 1028.8
20260906074814 65 30 0.9 4.3 0.00 0.01 0.00 63 1028.8
20260906073315 64 55 0.9 3.5 0.00 0.01 0.00 68 1028.7
20260906071811 62 36 1.7 4.3 0.00 0.01 0.00 72 1028.7
20260906070312 60 51 0.9 3.5 0.00 0.01 0.00 81 1028.7
20260906064814 57 44 0.0 0.9 0.00 0.01 0.00 94 1028.7
20260906063313 55 44 0.0 0.9 0.00 0.01 0.00 96 1028.7
20260906061814 54 44 0.0 0.0 0.00 0.01 0.00 97 1028.6
20260906060314 53 44 0.0 0.0 0.00 0.02 0.00 97 1028.7
20260906054816 53 44 0.0 0.0 0.00 0.05 0.00 97 1028.4
20260906053313 52 44 0.0 0.0 0.00 0.05 0.00 97 1028.3
20260906051814 51 44 0.0 0.0 0.00 0.05 0.00 96 1028.4
20260906050326 51 44 0.0 0.0 0.00 0.06 0.00 96 1028.4
20260906044810 51 44 0.0 0.0 0.00 0.06 0.00 96 1028.3
20260906043311 52 44 0.0 0.0 0.00 0.08 0.00 96 1028.2
20260906041811 52 44 0.0 0.0 0.00 0.17 0.00 97 1028.2
20260906040311 51 44 0.0 0.0 0.00 0.17 0.00 96 1028.1
20260906034812 51 44 0.0 0.0 0.00 0.17 0.00 96 1027.9
20260906033311 51 44 0.0 0.0 0.00 0.17 0.00 96 1027.9
20260906031812 52 44 0.0 0.0 0.00 0.17 0.00 96 1027.9
20260906030312 52 44 0.0 0.0 0.00 0.17 0.00 96 1027.8
20260906024812 53 44 0.0 0.0 0.00 0.17 0.00 96 1027.5
20260906023311 53 44 0.0 0.0 0.00 0.17 0.00 96 1027.6
20260906020314 54 44 0.0 0.0 0.00 0.17 0.00 96 1027.6
20260906014814 55 44 0.0 0.0 0.00 0.17 0.00 96 1027.6
20260906011810 55 44 0.0 0.0 0.00 0.17 0.00 96 1027.6
20260906010315 54 44 0.0 0.0 0.00 0.17 0.00 95 1027.6
20260906004816 54 44 0.0 0.0 0.00 0.17 0.00 95 1027.5
20260906003311 55 44 0.0 0.0 0.00 0.17 0.00 95 1027.5
20260906001811 55 44 0.0 0.0 0.00 0.17 0.00 94 1027.5
20260906000312 56 44 0.0 1.7 0.00 0.17 0.00 95 1027.5
20260905234813 55 19 0.0 2.6 0.00 0.17 0.00 94 1027.5
20260905233307 56 268 0.0 0.0 0.00 0.17 0.00 94 1027.2
20260905230310 57 268 0.0 0.0 0.00 0.17 0.00 94 1027.2
20260905224808 56 268 0.0 0.0 0.00 0.17 0.00 93 1027.2
20260905223309 57 268 0.0 0.0 0.00 0.17 0.00 92 1027.0
20260905220303 58 268 0.0 0.9 0.00 0.17 0.00 92 1027.1
20260905214809 59 268 0.0 0.9 0.00 0.17 0.17 92 1027.1
20260905213303 58 268 0.0 0.0 0.00 0.17 0.17 91 1026.9
20260905211805 59 268 0.0 0.9 0.00 0.17 0.17 91 1027.0
20260905210306 60 268 0.0 0.9 0.00 0.17 0.17 90 1026.8
20260905204804 60 268 0.0 0.0 0.00 0.17 0.17 89 1026.7
20260905203308 61 268 0.0 0.9 0.00 0.17 0.17 87 1026.7
20260905201801 62 268 0.0 1.7 0.00 0.17 0.17 85 1026.6
20260905200302 63 268 0.0 1.7 0.00 0.17 0.17 84 1026.4